Change the Weather History Date:

Monday, November 24, 2014

  Actual Average Record
Temperature  
Mean Temperature 82 °F 71 °F  
Max Temperature 87 °F 79 °F 89 °F (1948)
Min Temperature 77 °F 64 °F 39 °F (1925)
Degree Days  
Heating Degree Days 0 1  
Month to date heating degree days 10 3  
Since 1 July heating degree days 10 4  
Cooling Degree Days 17 7  
Month to date cooling degree days 174 204  
Year to date cooling degree days 4110 3825  
Growing Degree Days 32 (Base 50)    
Moisture  
Dew Point 76 °F    
Average Humidity 81    
Maximum Humidity 94    
Minimum Humidity 68    
Precipitation  
Precipitation 0.01 in 0.13 in 1.85 in (1932)
Month to date precipitation 1.80 3.96  
Year to date precipitation 59.39 58.16  
Snow  
Snow 0.00 in - - ()
Month to date snowfall 0.0  
Since 1 July snowfall 0.0  
Since 1 September snowfall 0.0  
Snow Depth 0.00 in    
Sea Level Pressure  
Sea Level Pressure 29.98 in    
Wind  
Wind Speed 10 mph (SSE)    
Max Wind Speed 18 mph    
Max Gust Speed 23 mph    
Visibility 10 miles    
Events      
T = Trace of Precipitation, MM = Missing Value Source: NWS Daily Summary

Daily Weather History Graph

Daily Weather History Graph

Search for Another Location

Airport or City:

Trip Planner

Search our weather history database for the weather conditions in past years. The results will help you decide how hot, cold, wet, or windy it might be!

Date:

Astronomy

Nov. 24, 2014 Rise Set
Actual Time 6:46 AM EST 5:27 PM EST
Civil Twilight 6:21 AM EST 5:52 PM EST
Nautical Twilight 5:53 AM EST 6:20 PM EST
Astronomical Twilight 5:25 AM EST 6:48 PM EST
Moon 8:39 AM EST (11/24) 7:45 PM EST (11/24)
Length of Visible Light 11h 30m
Length of Day
10h 41m
Waxing Crescent, 6% of the Moon is Illuminated
Nov 24
Waxing Crescent
Nov 29
First Quarter
Dec 6
Full
Dec 14
Last Quarter
Dec 21
New

Hourly Weather History & Observations

Time (EST) Temp. Heat Index Dew Point Humidity Pressure Visibility Wind Dir Wind Speed Gust Speed Precip Events Conditions
12:53 AM 80.1 °F 85.1 °F 75.0 °F 85% 29.95 in 10.0 mi SSE 11.5 mph - 0.00 in   Mostly Cloudy
1:53 AM 79.0 °F - 75.0 °F 88% 29.94 in 10.0 mi SSE 10.4 mph - 0.00 in   Mostly Cloudy
2:53 AM 79.0 °F - 75.0 °F 88% 29.93 in 10.0 mi South 6.9 mph - 0.01 in   Scattered Clouds
3:53 AM 79.0 °F - 75.9 °F 90% 29.93 in 10.0 mi South 8.1 mph - N/A   Mostly Cloudy
4:53 AM 79.0 °F - 75.0 °F 88% 29.94 in 9.0 mi South 6.9 mph - N/A   Scattered Clouds
5:53 AM 79.0 °F - 75.0 °F 88% 29.96 in 8.0 mi South 6.9 mph - N/A   Mostly Cloudy
6:53 AM 77.0 °F - 75.0 °F 94% 29.98 in 10.0 mi South 4.6 mph - N/A   Partly Cloudy
7:53 AM 79.0 °F - 75.9 °F 90% 30.00 in 10.0 mi South 5.8 mph - N/A   Scattered Clouds
8:53 AM 82.0 °F 89.4 °F 75.9 °F 82% 30.01 in 10.0 mi SSW 11.5 mph - N/A   Scattered Clouds
9:53 AM 84.9 °F 93.3 °F 75.0 °F 72% 30.01 in 10.0 mi SSW 8.1 mph - N/A   Scattered Clouds
10:07 AM 84.9 °F 93.3 °F 75.0 °F 72% 30.01 in 10.0 mi South 11.5 mph - N/A   Mostly Cloudy
10:53 AM 87.1 °F 96.3 °F 75.0 °F 67% 30.00 in 10.0 mi SSE 11.5 mph - N/A   Mostly Cloudy
11:53 AM 87.1 °F 98.8 °F 77.0 °F 72% 29.98 in 10.0 mi SSE 12.7 mph 23.0 mph N/A   Mostly Cloudy
12:53 PM 84.9 °F 94.1 °F 75.9 °F 74% 29.95 in 10.0 mi SE 17.3 mph - N/A   Scattered Clouds
1:53 PM 86.0 °F 96.0 °F 75.9 °F 72% 29.93 in 10.0 mi South 13.8 mph - N/A   Mostly Cloudy
2:53 PM 86.0 °F 96.0 °F 75.9 °F 72% 29.94 in 10.0 mi SSE 16.1 mph - N/A   Mostly Cloudy
3:53 PM 84.9 °F 93.3 °F 75.0 °F 72% 29.95 in 10.0 mi SE 13.8 mph - N/A   Mostly Cloudy
4:53 PM 82.9 °F 90.2 °F 75.0 °F 77% 29.96 in 10.0 mi SSE 9.2 mph - N/A   Mostly Cloudy
5:53 PM 82.0 °F 89.4 °F 75.9 °F 82% 29.97 in 10.0 mi SSE 11.5 mph - N/A   Scattered Clouds
6:53 PM 81.0 °F 87.3 °F 75.9 °F 85% 29.99 in 10.0 mi SSE 10.4 mph - N/A   Partly Cloudy
7:53 PM 81.0 °F 87.9 °F 77.0 °F 88% 30.01 in 10.0 mi South 9.2 mph - N/A   Scattered Clouds
8:53 PM 80.1 °F 85.8 °F 77.0 °F 90% 30.02 in 10.0 mi South 9.2 mph - N/A   Mostly Cloudy
9:53 PM 80.1 °F 85.8 °F 77.0 °F 90% 30.04 in 10.0 mi SSE 9.2 mph - N/A   Mostly Cloudy
10:53 PM 80.1 °F 85.8 °F 77.0 °F 90% 30.03 in 10.0 mi SSE 9.2 mph - N/A   Scattered Clouds
11:53 PM 80.1 °F 85.8 °F 77.0 °F 90% 30.03 in 10.0 mi SSE 5.8 mph - N/A   Scattered Clouds